Regional Weather Roundup
Issued by NWS

Home | Current Version | Previous Version | Graphics & Text | Print | Product List | Glossary On
Versions: 1 2 3 4 5 6 7 8 9 10 11 12 13 14 15 16 17 18 19 20 21 22 23 24 25 26 27
000
ASUS45 KCYS 260310
RWRWY

WYOMING REGIONAL WEATHER ROUNDUP
NATIONAL WEATHER SERVICE CHEYENNE WY
900 PM MDT SUN JUN 25 2017

NOTE:  "FAIR" INDICATES FEW OR NO CLOUDS BELOW 12,000 FEET
WITH NO SIGNIFICANT WEATHER AND/OR OBSTRUCTIONS TO VISIBILITY.

WYZ001-260400-
YELLOWSTONE NATIONAL PARK

CITY           SKY/WX    TMP DP  RH WIND       PRES   REMARKS
LK YELLOWSTONE   N/A     61  35  37 VRB5      30.43R
W YELLOWSTONE  NOT AVBL

$$
WYZ002>013-054>058-071-098>099-260400-
NORTHERN WYOMING

CITY           SKY/WX    TMP DP  RH WIND       PRES   REMARKS
JACKSON        FAIR      66  39  37 N5        30.31S
CODY           FAIR      69  36  29 N6        30.28S
GREYBULL       FAIR      77  29  17 NW12      30.18S
WORLAND        FAIR      67  43  41 E7        30.20S
SHERIDAN       FAIR      63  42  46 NW3       30.25S
BUFFALO        FAIR      63  39  41 NW6       30.31S
GILLETTE       FAIR      60  35  39 N6        30.26R
NEWCASTLE      FAIR      64  28  25 NE7       30.25S

$$
WYZ014>020-022>026-101>103-260400-
CENTRAL WYOMING

CITY           SKY/WX    TMP DP  RH WIND       PRES   REMARKS
BIG PINEY      FAIR      66  38  35 NE9       30.34R
PINEDALE       FAIR      64  37  36 N7        30.35S
DUBOIS         FAIR      63  36  36 SE9       30.37R
LANDER         FAIR      70  38  31 W5        30.26R
RIVERTON       FAIR      70  32  24 E8        30.27R
CASPER         FAIR      65  36  34 NE9       30.27R
DOUGLAS        FAIR      62  36  37 E7        30.26S

$$
WYZ021-027>030-104>119-260400-
SOUTHERN WYOMING

CITY           SKY/WX    TMP DP  RH WIND       PRES   REMARKS
EVANSTON       FAIR      73  32  22 N8        30.33S
KEMMERER         N/A     66  32  28 W7        30.36S
FORT BRIDGER   FAIR      73  29  19 N3        30.36R
ROCK SPRINGS   FAIR      71  25  17 NE3       30.31S
DIXON          FAIR      66  27  22 NE12      30.32S
RAWLINS        FAIR      62  20  19 NE9       30.34S
SARATOGA       FAIR      64  30  27 N6        30.36S
LARAMIE        FAIR      58  46  64 SE9       30.38R
CHEYENNE       FAIR      62  48  60 S8        30.34R
TORRINGTON     FAIR      72  41  32 CALM      30.21S
PINE BLUFFS    FAIR      59  52  77 S7        30.30R

$$




USA.gov is the U.S. government's official web portal to all federal, state and local government web resources and services.